#timestamp,LO_Frequency,Hit,StdDev 
1641902415.7,286047012.3,N
1641902435.5,286047008.1,N
1641902455.4,286047007.9,N
1641902475.2,286046999.8,N
1641902495.0,286046997.5,N
1641902495.9,286046997.5,N
1641902515.8,286046995.6,N
1641902535.6,286046992.1,N
1641902555.5,286046997.8,N
1641902575.3,286046995.0,N
1641902595.1,286046998.9,N
1641902615.9,286047003.4,N
1641902635.7,286047006.1,N
1641902655.5,286047009.5,N
1641902675.4,286047011.6,N
1641902725.3,286047010.6,E
1641902735.2,286047006.9,N
1641902755.0,286047002.5,P
1641902755.9,286047002.5,N
1641902775.8,286047000.6,N
1641902795.6,286047002.8,N
1641902815.4,286047000.4,N
1641902835.3,286046997.8,N
1641902855.1,286046999.2,N
1641902875.8,286047001.4,N
1641902895.7,286046999.9,N
1641902915.5,286046998.1,N
1641902935.4,286047001.4,N
1641902955.2,286047005.2,N
1641902975.0,286047015.6,Y
1641902975.9,286047015.6,P
1641902995.8,286047011.8,N
1641903015.6,286047010.3,N
1641903035.5,286047016.5,Y
1641903055.3,286047010.7,P
1641903075.1,286047004.6,P
1641903095.9,286047003.7,N
1641903115.7,286047007.7,N
1641903135.5,286047015.2,Y
1641903155.4,286047000.7,P
1641903175.2,286047000.2,N
1641903195.1,286046992.1,N
1641903196.0,286046992.1,N
1641903215.8,286046989.9,N
1641903235.6,286046986.8,N
1641903255.5,286046984.1,N
1641903275.3,286046991.1,N
1641903295.2,286046990.2,N
1641903315.9,286046992.8,N
1641903335.7,286046988.8,N
1641903355.6,286046987.3,N
1641903375.4,286046993.1,N
1641903395.2,286046987.6,N
1641903415.1,286046982.0,Y
1641903416.0,286046982.0,P
1641903435.8,286046987.5,N
1641903455.7,286046998.5,N
1641903475.5,286047004.3,N
1641903495.3,286046996.5,N
1641903515.2,286046997.6,N
1641903535.0,286046998.9,N
1641903535.9,286046998.9,N
1641903555.8,286046996.0,N
1641903575.6,286046991.8,N
1641903595.4,286047000.2,N
1641903615.3,286046999.4,N
1641903635.1,286046999.1,N
1641903655.9,286047005.4,N
1641903675.7,286047002.2,N
1641903695.5,286046999.6,N
1641903715.4,286046995.4,N
1641903735.2,286046991.8,N
1641903755.0,286046993.7,N
1641903755.9,286046993.7,N
1641903775.8,286046992.5,N
1641903795.6,286046995.3,N
1641903815.5,286046997.5,N
1641903835.3,286046994.2,N
1641903855.1,286046992.7,N
1641903875.9,286046990.5,N
1641903895.7,286046993.8,N
1641903915.6,286046997.2,N
1641903935.4,286046991.7,N
1641903955.2,286046995.7,N
1641903975.1,286046996.1,N
1641903976.0,286046996.1,N
1641903995.8,286046993.5,N
1641904015.6,286046993.2,N
1641904035.5,286046991.3,N
1641904055.3,286046999.2,N
1641904075.2,286046990.9,N
1641904095.9,286046989.5,N
1641904115.7,286046987.3,Y
1641904135.6,286046995.8,P
1641904155.4,286046988.7,P
1641904175.3,286046991.6,N
1641904195.1,286046988.8,Y
1641904196.0,286046988.8,P
1641904215.8,286046993.4,P
1641904235.7,286046995.0,N
1641904255.5,286046995.1,N
1641904275.4,286046995.3,N
1641904295.2,286047000.9,N
1641904315.0,286047002.3,N
1641904315.9,286047002.3,N
1641904335.8,286047002.0,N
1641904355.6,286047002.5,N
1641904375.4,286046996.6,N
1641904395.3,286046997.3,N
1641904415.1,286046996.4,N
1641904435.9,286047008.8,N
1641904455.7,286047003.1,N
1641904475.5,286047000.4,N
1641904495.4,286046996.7,N
1641904515.2,286046998.8,N
1641904535.0,286046999.7,N
1641904535.9,286046999.7,N
1641904555.8,286047000.5,N
1641904575.6,286047002.7,N
1641904595.5,286047001.3,N
1641904615.3,286047008.8,N
1641904635.1,286047006.2,N
1641904655.9,286047006.0,N
1641904675.7,286047004.1,N
1641904695.5,286047007.4,N
1641904715.4,286047005.1,N
1641904735.2,286047009.4,N
1641904755.1,286047014.0,N
1641904756.0,286047014.0,N
1641904775.8,286047008.6,N
1641904795.6,286047004.5,N
1641904815.5,286047003.4,N
1641904835.3,286047004.3,N
1641904855.2,286047001.6,N
1641904875.9,286047003.9,N
1641904895.7,286047012.3,N
1641904915.6,286047011.6,N
1641904935.4,286047005.2,N
1641904955.2,286047002.6,N
1641904975.1,286047007.4,N
1641904976.0,286047007.4,N
1641904995.8,286047002.9,N
1641905015.7,286047002.1,N
1641905035.5,286047000.9,N
1641905055.3,286046997.8,N
1641905075.2,286046997.9,N
1641905095.0,286046995.9,N
1641905095.9,286046995.9,N
1641905115.8,286046990.1,N
1641905135.6,286046989.8,N
1641905155.4,286046991.6,N
1641905175.3,286046988.9,N
1641905195.1,286046990.5,N
1641905215.9,286046989.1,N
1641905265.7,286046985.2,E
1641905275.6,286046990.7,N
1641905295.5,286047002.3,P
1641905315.3,286047002.0,N
1641905335.2,286046998.4,N
1641905355.9,286046999.4,N
1641905375.7,286046999.4,N
1641905395.6,286046999.1,N
1641905415.4,286047000.6,N
1641905435.2,286047003.8,N
1641905455.1,286047004.8,N
1641905456.0,286047004.8,N
1641905475.8,286047001.4,N
1641905495.7,286047003.6,N
1641905515.5,286047004.3,N
1641905535.3,286047004.4,N
1641905555.2,286046997.6,N
1641905575.0,286046996.0,N
1641905575.9,286046996.0,N
1641905595.8,286046994.4,N
1641905615.6,286046994.6,N
1641905635.4,286046992.4,N
1641905655.3,286047001.0,N
1641905675.1,286047002.8,N
1641905695.9,286047001.2,N
1641905715.7,286046998.3,N
1641905735.5,286046996.4,N
1641905755.4,286046997.9,N
1641905775.2,286046997.6,N
1641905795.0,286047007.5,N
1641905795.9,286047007.5,N
1641905815.8,286047006.0,N
1641905835.6,286047005.7,N
1641905855.5,286047005.4,N
1641905875.3,286047003.3,N
1641905895.1,286047007.4,N
1641905915.9,286047015.5,Y
1641905935.7,286047014.4,P
1641905955.6,286047012.5,N
1641905975.4,286047011.1,N
1641905995.2,286047011.4,N
